ECHOSTAR 15

Last updated on Wed Jul 16 2025 00:02:46 GMT+0000 (Coordinated Universal Time)

1 36792U 10034A 25196.52475573 -.00000023 00000+0 00000+0 0 9990 2 36792 0.0120 63.4112 0002002 35.2555 273.4537 1.00113229 54940
UTC large
Height (km)
Speed (km/s)
/
Latitude / Longitude
Inclination (degrees)
Orbital Period (minutes)
Azimuth
Elevation
Range (km)
Doppler Factor

Next 0 passes for location: London (51.5072 / 0.1276)

Sorry there are no passes over London.